When you browse on this site, cookies collect data to enhance your experience and personalize the content and advertising you see.
Visit our Privacy Policy to learn more. By continuing to use the site, you agree to this use of cookies and data.
  • In Lithuania
  • List of Countries
  • For 7 days
  • Water Temperature
  • Weather Map
  • Weather Widgets
  • user-avatar
    Login

    Hourly Weather Krasnopole

    Today, 6 June, Saturday

    Time Temperature Precipitation Wind Pressure Humidity
    00:00 +11°C° 0.3 mm 3 mps 743 mmHg 96%
    01:00 +12°C° 0 mm 2 mps 743 mmHg 97%
    02:00 +12°C° 0 mm 2 mps 743 mmHg 97%
    03:00 +12°C° 0 mm 2 mps 743 mmHg 97%
    04:00 +12°C° 0 mm 2 mps 743 mmHg 97%
    05:00 +13°C° 0 mm 2 mps 743 mmHg 96%
    06:00 +13°C° 0 mm 3 mps 744 mmHg 96%
    07:00 +14°C° 0 mm 3 mps 744 mmHg 94%
    08:00 +16°C° 0 mm 3 mps 744 mmHg 92%
    09:00 +16°C° 0 mm 3 mps 744 mmHg 90%
    10:00 +17°C° 0 mm 4 mps 744 mmHg 89%
    11:00 +18°C° 0 mm 4 mps 744 mmHg 87%
    12:00 +19°C° 0 mm 4 mps 744 mmHg 86%
    13:00 +20°C° 0.1 mm 4 mps 744 mmHg 85%
    14:00 +21°C° 0.1 mm 4 mps 744 mmHg 84%
    15:00 +21°C° 0.1 mm 4 mps 744 mmHg 83%
    16:00 +22°C° 0.2 mm 3 mps 744 mmHg 83%
    17:00 +22°C° 0.2 mm 3 mps 744 mmHg 83%
    18:00 +22°C° 0.2 mm 3 mps 744 mmHg 84%
    19:00 +21°C° 1.4 mm 2 mps 744 mmHg 87%
    20:00 +20°C° 1.4 mm 2 mps 744 mmHg 91%
    21:00 +19°C° 1.4 mm 2 mps 744 mmHg 94%
    22:00 +18°C° 0.2 mm 2 mps 744 mmHg 94%
    23:00 +18°C° 0.2 mm 2 mps 744 mmHg 94%

    Tomorrow, 7 June, Sunday

    Time Temperature Precipitation Wind Pressure Humidity
    00:00 +18°C° 0.2 mm 2 mps 744 mmHg 94%
    01:00 +18°C° 0.2 mm 2 mps 744 mmHg 94%
    02:00 +18°C° 0.2 mm 2 mps 745 mmHg 94%
    03:00 +18°C° 0.2 mm 2 mps 745 mmHg 95%
    04:00 +18°C° 0.2 mm 2 mps 745 mmHg 95%
    05:00 +18°C° 0.2 mm 2 mps 745 mmHg 95%
    06:00 +18°C° 0.2 mm 2 mps 745 mmHg 95%
    07:00 +19°C° 0 mm 2 mps 745 mmHg 91%
    08:00 +21°C° 0 mm 2 mps 746 mmHg 88%
    09:00 +23°C° 0 mm 2 mps 746 mmHg 84%
    10:00 +24°C° 1.1 mm 3 mps 746 mmHg 81%
    11:00 +25°C° 1.1 mm 3 mps 746 mmHg 78%
    12:00 +26°C° 1.1 mm 3 mps 746 mmHg 75%
    13:00 +26°C° 0.8 mm 3 mps 746 mmHg 75%
    14:00 +26°C° 0.8 mm 3 mps 746 mmHg 75%
    15:00 +26°C° 0.8 mm 3 mps 746 mmHg 74%
    16:00 +26°C° 0.2 mm 2 mps 746 mmHg 76%
    17:00 +26°C° 0.2 mm 2 mps 746 mmHg 78%
    18:00 +26°C° 0.2 mm 2 mps 746 mmHg 80%
    19:00 +24°C° 0 mm 2 mps 746 mmHg 83%
    20:00 +23°C° 0 mm 1 mps 746 mmHg 87%
    21:00 +21°C° 0 mm 1 mps 746 mmHg 90%
    22:00 +21°C° 0 mm 1 mps 747 mmHg 91%
    23:00 +20°C° 0 mm 1 mps 747 mmHg 92%

    Day after tomorrow, 8 June, Monday

    Time Temperature Precipitation Wind Pressure Humidity
    00:00 +20°C° 0 mm 1 mps 747 mmHg 92%
    01:00 +19°C° 0 mm 1 mps 747 mmHg 93%
    02:00 +19°C° 0 mm 1 mps 747 mmHg 93%
    03:00 +19°C° 0 mm 1 mps 747 mmHg 94%
    04:00 +19°C° 0 mm 1 mps 747 mmHg 94%
    05:00 +20°C° 0 mm 1 mps 747 mmHg 94%
    06:00 +20°C° 0 mm 1 mps 747 mmHg 94%
    07:00 +20°C° 0 mm 2 mps 747 mmHg 90%
    08:00 +23°C° 0 mm 2 mps 748 mmHg 87%
    09:00 +24°C° 0 mm 2 mps 748 mmHg 83%
    10:00 +25°C° 0.1 mm 2 mps 748 mmHg 80%
    11:00 +26°C° 0.1 mm 2 mps 747 mmHg 77%
    12:00 +27°C° 0.1 mm 3 mps 747 mmHg 73%
    13:00 +27°C° 0.2 mm 3 mps 747 mmHg 74%
    14:00 +27°C° 0.2 mm 3 mps 747 mmHg 74%
    15:00 +27°C° 0.2 mm 3 mps 747 mmHg 74%
    16:00 +26°C° 0.6 mm 3 mps 747 mmHg 78%
    17:00 +26°C° 0.6 mm 3 mps 747 mmHg 82%
    18:00 +25°C° 0.6 mm 4 mps 747 mmHg 85%
    19:00 +24°C° 0.1 mm 3 mps 747 mmHg 88%
    20:00 +22°C° 0.1 mm 3 mps 747 mmHg 91%
    21:00 +21°C° 0.1 mm 3 mps 747 mmHg 93%
    22:00 +20°C° 0 mm 3 mps 747 mmHg 93%
    23:00 +19°C° 0 mm 3 mps 747 mmHg 93%

    9 June, Tuesday

    Time Temperature Precipitation Wind Pressure Humidity
    00:00 +18°C° 0 mm 3 mps 747 mmHg 93%
    01:00 +18°C° 0 mm 3 mps 747 mmHg 93%
    02:00 +17°C° 0 mm 3 mps 747 mmHg 93%
    03:00 +17°C° 0 mm 3 mps 748 mmHg 94%
    04:00 +17°C° 0 mm 3 mps 748 mmHg 93%
    05:00 +17°C° 0 mm 3 mps 748 mmHg 93%
    06:00 +18°C° 0 mm 3 mps 748 mmHg 93%
    07:00 +19°C° 0 mm 3 mps 748 mmHg 89%
    08:00 +20°C° 0 mm 4 mps 748 mmHg 85%
    09:00 +21°C° 0 mm 4 mps 749 mmHg 82%
    10:00 +22°C° 0 mm 4 mps 749 mmHg 79%
    11:00 +23°C° 0 mm 5 mps 749 mmHg 76%
    12:00 +25°C° 0 mm 5 mps 749 mmHg 73%
    13:00 +25°C° 0 mm 5 mps 748 mmHg 72%
    14:00 +25°C° 0 mm 5 mps 748 mmHg 72%
    15:00 +25°C° 0 mm 5 mps 748 mmHg 71%
    16:00 +25°C° 0.1 mm 4 mps 748 mmHg 74%
    17:00 +25°C° 0.1 mm 4 mps 748 mmHg 77%
    18:00 +24°C° 0.1 mm 3 mps 748 mmHg 79%
    19:00 +22°C° 0 mm 3 mps 748 mmHg 83%
    20:00 +20°C° 0 mm 3 mps 748 mmHg 87%
    21:00 +19°C° 0 mm 3 mps 748 mmHg 90%
    22:00 +18°C° 0 mm 3 mps 748 mmHg 91%
    23:00 +18°C° 0 mm 3 mps 748 mmHg 93%

    10 June, Wednesday

    Time Temperature Precipitation Wind Pressure Humidity
    00:00 +17°C° 0 mm 3 mps 748 mmHg 94%
    01:00 +16°C° 0 mm 3 mps 748 mmHg 94%
    02:00 +16°C° 0 mm 3 mps 748 mmHg 94%
    03:00 +14°C° 0 mm 3 mps 748 mmHg 94%
    04:00 +16°C° 0 mm 3 mps 748 mmHg 93%
    05:00 +16°C° 0 mm 3 mps 748 mmHg 92%
    06:00 +17°C° 0 mm 3 mps 748 mmHg 91%
    07:00 +18°C° 0 mm 3 mps 748 mmHg 88%
    08:00 +19°C° 0 mm 4 mps 748 mmHg 85%
    09:00 +20°C° 0 mm 4 mps 748 mmHg 81%
    10:00 +21°C° 0.1 mm 4 mps 748 mmHg 79%
    11:00 +22°C° 0.1 mm 4 mps 748 mmHg 76%
    12:00 +23°C° 0.1 mm 4 mps 748 mmHg 74%
    13:00 +24°C° 0.6 mm 3 mps 747 mmHg 73%
    14:00 +24°C° 0.6 mm 3 mps 747 mmHg 73%
    15:00 +25°C° 0.6 mm 2 mps 747 mmHg 72%
    16:00 +24°C° 0.5 mm 2 mps 746 mmHg 73%
    17:00 +24°C° 0.5 mm 2 mps 746 mmHg 74%
    18:00 +24°C° 0.5 mm 1 mps 746 mmHg 74%
    19:00 +23°C° 0 mm 1 mps 746 mmHg 79%
    20:00 +21°C° 0 mm 1 mps 746 mmHg 83%
    21:00 +18°C° 0 mm 0 mps 746 mmHg 88%
    22:00 +17°C° 0 mm 0 mps 746 mmHg 89%
    23:00 +17°C° 0 mm 0 mps 746 mmHg 90%

    11 June, Thursday

    Time Temperature Precipitation Wind Pressure Humidity
    00:00 +16°C° 0 mm 0 mps 746 mmHg 90%
    01:00 +16°C° 0 mm 0 mps 746 mmHg 91%
    02:00 +16°C° 0 mm 0 mps 746 mmHg 91%
    03:00 +15°C° 0 mm 0 mps 746 mmHg 92%
    04:00 +18°C° 0 mm 1 mps 746 mmHg 91%
    05:00 +18°C° 0 mm 1 mps 746 mmHg 91%
    06:00 +19°C° 0 mm 1 mps 746 mmHg 91%
    07:00 +20°C° 0 mm 1 mps 746 mmHg 87%
    08:00 +21°C° 0 mm 1 mps 746 mmHg 83%
    09:00 +23°C° 0 mm 1 mps 746 mmHg 79%
    10:00 +24°C° 0 mm 1 mps 746 mmHg 74%
    11:00 +23°C° 0 mm 0 mps 746 mmHg 70%
    12:00 +24°C° 0 mm 0 mps 746 mmHg 65%
    13:00 +24°C° 0.1 mm 0 mps 746 mmHg 63%
    14:00 +25°C° 0.1 mm 0 mps 746 mmHg 62%
    15:00 +25°C° 0.1 mm 0 mps 746 mmHg 60%
    16:00 +25°C° 0.2 mm 0 mps 746 mmHg 63%
    17:00 +24°C° 0.2 mm 0 mps 745 mmHg 66%
    18:00 +24°C° 0.2 mm 0 mps 745 mmHg 68%
    19:00 +25°C° 0 mm 1 mps 746 mmHg 73%
    20:00 +23°C° 0 mm 1 mps 746 mmHg 77%
    21:00 +21°C° 0 mm 1 mps 746 mmHg 82%
    22:00 +21°C° 0 mm 1 mps 746 mmHg 84%
    23:00 +20°C° 0 mm 1 mps 746 mmHg 86%
    Show more